Terug naar catalogus

YAHSAT 1A

ActiefCommunicatieGEO
NORAD 37393·PAYLOAD·🇦🇪 UAE

Gelanceerd Apr 22, 2011 vanaf Guiana Space Centre

Loading…

TLE

VersSource: Space-Track

Epoch: Sep 14, 2026, 14:03 UTC

1 37393U 11016B   26257.58550105  .00000093  00000-0  00000-0 0  9997
2 37393   0.0126 151.2377 0001950   5.8595  99.7606  1.00271687 43308

Volg YAHSAT 1A in realtime met AllMySat

Download on the App Store